• In Portugal
  • List of Countries
  • For 7 days
  • Water Temperature
  • Satellite Maps
  • Weather Map
  • Weather Widgets
  • user-avatar
    Login

    Hourly Weather Dziecmorowice

    Today, 25 April, Wednesday

    Time Temperature Precipitation Wind Pressure Humidity
    00:00 +11°C° 0 mm 1 mps 721 mmHg 87%
    01:00 +10°C° 0 mm 2 mps 721 mmHg 89%
    02:00 +10°C° 0 mm 2 mps 721 mmHg 89%
    03:00 +10°C° 0 mm 2 mps 720 mmHg 90%
    04:00 +9°C° 0 mm 2 mps 720 mmHg 90%
    05:00 +11°C° 0 mm 3 mps 720 mmHg 84%
    06:00 +12°C° 0 mm 4 mps 719 mmHg 79%
    07:00 +13°C° 0 mm 5 mps 719 mmHg 71%
    08:00 +15°C° 0 mm 6 mps 719 mmHg 67%
    09:00 +16°C° 0 mm 7 mps 719 mmHg 62%
    10:00 +18°C° 0 mm 8 mps 719 mmHg 58%
    11:00 +20°C° 0.1 mm 8 mps 719 mmHg 56%
    12:00 +20°C° 0.1 mm 8 mps 718 mmHg 55%
    13:00 +21°C° 0.1 mm 8 mps 718 mmHg 53%
    14:00 +20°C° 0.4 mm 8 mps 718 mmHg 57%
    15:00 +18°C° 0.4 mm 8 mps 718 mmHg 61%
    16:00 +17°C° 0.4 mm 8 mps 717 mmHg 64%
    17:00 +16°C° 0.1 mm 6 mps 718 mmHg 69%
    18:00 +14°C° 0.1 mm 5 mps 718 mmHg 73%
    19:00 +12°C° 0.1 mm 4 mps 718 mmHg 77%
    20:00 +11°C° 0 mm 4 mps 719 mmHg 80%
    21:00 +10°C° 0 mm 3 mps 719 mmHg 83%
    22:00 +9°C° 0 mm 3 mps 720 mmHg 85%
    23:00 +8°C° 0 mm 2 mps 720 mmHg 86%

    Tomorrow, 26 April, Thursday

    Time Temperature Precipitation Wind Pressure Humidity
    00:00 +8°C° 0 mm 2 mps 720 mmHg 86%
    01:00 +7°C° 0 mm 2 mps 721 mmHg 87%
    02:00 +8°C° 0 mm 1 mps 721 mmHg 86%
    03:00 +8°C° 0 mm 1 mps 721 mmHg 85%
    04:00 +8°C° 0 mm 1 mps 721 mmHg 84%
    05:00 +8°C° 0 mm 2 mps 721 mmHg 82%
    06:00 +9°C° 0 mm 3 mps 721 mmHg 79%
    07:00 +10°C° 0 mm 4 mps 721 mmHg 77%
    08:00 +11°C° 0.1 mm 4 mps 721 mmHg 70%
    09:00 +10°C° 0.1 mm 5 mps 722 mmHg 62%
    10:00 +11°C° 0.1 mm 6 mps 722 mmHg 54%
    11:00 +13°C° 0 mm 6 mps 721 mmHg 51%
    12:00 +14°C° 0 mm 6 mps 721 mmHg 48%
    13:00 +14°C° 0 mm 7 mps 721 mmHg 45%
    14:00 +12°C° 0 mm 7 mps 721 mmHg 47%
    15:00 +12°C° 0 mm 7 mps 721 mmHg 48%
    16:00 +11°C° 0 mm 7 mps 721 mmHg 50%
    17:00 +10°C° 0 mm 6 mps 722 mmHg 55%
    18:00 +8°C° 0 mm 5 mps 722 mmHg 60%
    19:00 +8°C° 0 mm 3 mps 722 mmHg 65%
    20:00 +7°C° 0 mm 3 mps 723 mmHg 69%
    21:00 +5°C° 0 mm 3 mps 723 mmHg 72%
    22:00 +4°C° 0 mm 3 mps 724 mmHg 75%
    23:00 +5°C° 0 mm 2 mps 724 mmHg 77%

    Day after tomorrow, 27 April, Friday

    Time Temperature Precipitation Wind Pressure Humidity
    00:00 +5°C° 0 mm 2 mps 724 mmHg 79%
    01:00 +4°C° 0 mm 2 mps 724 mmHg 80%
    02:00 +4°C° 0 mm 2 mps 724 mmHg 81%
    03:00 +4°C° 0 mm 2 mps 724 mmHg 82%
    04:00 +3°C° 0 mm 2 mps 724 mmHg 83%
    05:00 +5°C° 0 mm 2 mps 724 mmHg 78%
    06:00 +6°C° 0 mm 2 mps 724 mmHg 74%
    07:00 +8°C° 0 mm 2 mps 725 mmHg 69%
    08:00 +9°C° 0 mm 2 mps 725 mmHg 62%
    09:00 +12°C° 0 mm 2 mps 725 mmHg 56%
    10:00 +13°C° 0 mm 2 mps 725 mmHg 50%
    11:00 +13°C° 0 mm 3 mps 724 mmHg 48%
    12:00 +14°C° 0 mm 3 mps 724 mmHg 46%
    13:00 +16°C° 0 mm 3 mps 723 mmHg 44%
    14:00 +16°C° 0 mm 3 mps 723 mmHg 45%
    15:00 +15°C° 0 mm 4 mps 722 mmHg 46%
    16:00 +17°C° 0 mm 4 mps 722 mmHg 47%
    17:00 +14°C° 0 mm 3 mps 721 mmHg 55%
    18:00 +13°C° 0 mm 3 mps 721 mmHg 63%
    19:00 +11°C° 0 mm 3 mps 720 mmHg 71%
    20:00 +10°C° 0 mm 3 mps 720 mmHg 74%
    21:00 +10°C° 0 mm 3 mps 720 mmHg 76%
    22:00 +9°C° 0 mm 3 mps 720 mmHg 79%
    23:00 +10°C° 0 mm 3 mps 720 mmHg 78%

    28 April, Saturday

    Time Temperature Precipitation Wind Pressure Humidity
    00:00 +10°C° 0 mm 4 mps 720 mmHg 77%
    01:00 +11°C° 0 mm 4 mps 720 mmHg 75%
    02:00 +10°C° 0 mm 5 mps 720 mmHg 76%
    03:00 +10°C° 0 mm 5 mps 720 mmHg 76%
    04:00 +10°C° 0 mm 5 mps 720 mmHg 76%
    05:00 +12°C° 0 mm 4 mps 720 mmHg 77%
    06:00 +12°C° 0 mm 4 mps 721 mmHg 79%
    07:00 +12°C° 0 mm 3 mps 721 mmHg 80%
    08:00 +14°C° 0 mm 4 mps 721 mmHg 72%
    09:00 +17°C° 0 mm 4 mps 722 mmHg 63%
    10:00 +17°C° 0 mm 5 mps 722 mmHg 55%
    11:00 +19°C° 0 mm 5 mps 722 mmHg 52%
    12:00 +19°C° 0 mm 5 mps 722 mmHg 48%
    13:00 +20°C° 0 mm 5 mps 722 mmHg 45%
    14:00 +20°C° 0 mm 5 mps 722 mmHg 45%
    15:00 +20°C° 0 mm 4 mps 722 mmHg 46%
    16:00 +19°C° 0 mm 4 mps 722 mmHg 46%
    17:00 +17°C° 0 mm 3 mps 722 mmHg 54%
    18:00 +15°C° 0 mm 2 mps 722 mmHg 61%
    19:00 +13°C° 0 mm 2 mps 722 mmHg 69%
    20:00 +12°C° 0 mm 1 mps 723 mmHg 73%
    21:00 +11°C° 0 mm 1 mps 723 mmHg 77%
    22:00 +10°C° 0 mm 1 mps 723 mmHg 80%
    23:00 +10°C° 0 mm 1 mps 723 mmHg 82%

    29 April, Sunday

    Time Temperature Precipitation Wind Pressure Humidity
    00:00 +9°C° 0 mm 1 mps 723 mmHg 84%
    01:00 +9°C° 0 mm 1 mps 723 mmHg 85%
    02:00 +8°C° 0 mm 1 mps 723 mmHg 86%
    03:00 +8°C° 0 mm 1 mps 723 mmHg 87%
    04:00 +8°C° 0 mm 1 mps 723 mmHg 87%
    05:00 +8°C° 0 mm 2 mps 723 mmHg 83%
    06:00 +9°C° 0 mm 2 mps 723 mmHg 79%
    07:00 +10°C° 0 mm 3 mps 723 mmHg 75%
    08:00 +12°C° 0 mm 3 mps 723 mmHg 72%
    09:00 +14°C° 0 mm 4 mps 723 mmHg 69%
    10:00 +17°C° 0 mm 4 mps 722 mmHg 65%
    11:00 +18°C° 0 mm 4 mps 722 mmHg 64%
    12:00 +20°C° 0 mm 4 mps 722 mmHg 63%
    13:00 +21°C° 0 mm 4 mps 721 mmHg 62%
    14:00 +21°C° 0.5 mm 4 mps 721 mmHg 64%
    15:00 +21°C° 0.5 mm 4 mps 720 mmHg 65%
    16:00 +21°C° 0.5 mm 4 mps 720 mmHg 67%
    17:00 +20°C° 0.6 mm 3 mps 720 mmHg 73%
    18:00 +18°C° 0.6 mm 3 mps 719 mmHg 78%
    19:00 +17°C° 0.6 mm 3 mps 719 mmHg 84%
    20:00 +17°C° 0.1 mm 3 mps 719 mmHg 86%
    21:00 +16°C° 0.1 mm 2 mps 718 mmHg 88%
    22:00 +15°C° 0.1 mm 2 mps 718 mmHg 90%
    23:00 +15°C° 0 mm 2 mps 718 mmHg 90%

    30 April, Monday

    Time Temperature Precipitation Wind Pressure Humidity
    00:00 +15°C° 0 mm 2 mps 717 mmHg 91%
    01:00 +13°C° 0 mm 3 mps 717 mmHg 92%
    02:00 +13°C° 0 mm 3 mps 717 mmHg 92%
    03:00 +13°C° 0 mm 3 mps 716 mmHg 92%
    04:00 +12°C° 0 mm 3 mps 716 mmHg 92%
    05:00 +14°C° 0 mm 3 mps 716 mmHg 88%
    06:00 +15°C° 0 mm 4 mps 716 mmHg 84%
    07:00 +17°C° 0 mm 4 mps 715 mmHg 80%
    08:00 +19°C° 0 mm 5 mps 715 mmHg 72%
    09:00 +21°C° 0 mm 6 mps 715 mmHg 64%
    10:00 +22°C° 0 mm 7 mps 715 mmHg 56%
    11:00 +23°C° 0 mm 7 mps 715 mmHg 54%
    12:00 +24°C° 0 mm 7 mps 715 mmHg 52%
    13:00 +24°C° 0 mm 7 mps 715 mmHg 50%
    14:00 +24°C° 0.2 mm 7 mps 715 mmHg 52%
    15:00 +24°C° 0.2 mm 6 mps 715 mmHg 55%
    16:00 +24°C° 0.2 mm 6 mps 715 mmHg 58%
    17:00 +21°C° 0.6 mm 5 mps 715 mmHg 66%
    18:00 +19°C° 0.6 mm 5 mps 716 mmHg 74%
    19:00 +17°C° 0.6 mm 4 mps 716 mmHg 82%
    20:00 +15°C° 0.5 mm 4 mps 717 mmHg 85%
    21:00 +13°C° 0.5 mm 4 mps 717 mmHg 87%
    22:00 +12°C° 0.5 mm 4 mps 718 mmHg 89%
    23:00 +11°C° 0 mm 4 mps 719 mmHg 89%
    Show more